18-10-2023, 00:00:06,     90,    0.0,    8.9,   0.00,   0.00, 1004.8,   63.1, -999.0
18-10-2023, 00:00:16,     89,    0.0,    9.0,   0.00,   0.00, 1004.8,   63.1, -999.0
18-10-2023, 00:00:26,     90,    0.0,    8.9,   0.00,   0.00, 1004.7,   63.1, -999.0
18-10-2023, 00:00:36,     89,    0.0,    8.9,   0.00,   0.00, 1004.7,   63.1, -999.0
18-10-2023, 00:00:46,     89,    0.0,    8.9,   0.00,   0.00, 1004.8,   63.2, -999.0
18-10-2023, 00:00:56,     89,    0.0,    8.9,   0.00,   0.00, 1004.8,   63.2, -999.0
18-10-2023, 00:01:06,     67,    0.7,    8.9,   0.00,   0.00, 1004.9,   63.6, -999.0
18-10-2023, 00:01:15,     66,    0.8,    9.1,   0.00,   0.00, 1004.9,   63.6, -999.0
18-10-2023, 00:01:26,     66,    0.0,    8.9,   0.00,   0.00, 1004.7,   63.3, -999.0
18-10-2023, 00:01:36,     65,    0.3,    8.9,   0.00,   0.00, 1004.8,   63.6, -999.0
18-10-2023, 00:01:45,     59,    0.7,    9.0,   0.00,   0.00, 1004.8,   63.7, -999.0
18-10-2023, 00:01:55,     52,    0.4,    8.9,   0.00,   0.00, 1004.8,   63.8, -999.0
18-10-2023, 00:02:06,     52,    0.5,    8.9,   0.00,   0.00, 1004.8,   63.9, -999.0
18-10-2023, 00:02:16,     53,    0.1,    9.0,   0.00,   0.00, 1004.8,   63.8, -999.0
18-10-2023, 00:02:25,     53,    0.0,    9.0,   0.00,   0.00, 1004.7,   63.7, -999.0
18-10-2023, 00:02:36,     53,    0.0,    8.9,   0.00,   0.00, 1004.7,   63.6, -999.0
18-10-2023, 00:02:46,     53,    0.0,    8.9,   0.00,   0.00, 1004.7,   63.6, -999.0
18-10-2023, 00:02:55,     53,    0.0,    9.0,   0.00,   0.00, 1004.8,   63.7, -999.0
18-10-2023, 00:03:05,     53,    0.0,    8.9,   0.00,   0.00, 1004.7,   63.5, -999.0
18-10-2023, 00:03:16,     53,    0.0,    8.9,   0.00,   0.00, 1004.7,   63.5, -999.0
18-10-2023, 00:03:25,     53,    0.0,    9.1,   0.00,   0.00, 1004.7,   63.5, -999.0
18-10-2023, 00:03:35,     53,    0.0,    8.9,   0.00,   0.00, 1004.7,   63.4, -999.0
18-10-2023, 00:03:45,     53,    0.0,    9.0,   0.00,   0.00, 1004.7,   63.4, -999.0
18-10-2023, 00:03:55,     53,    0.0,    9.0,   0.00,   0.00, 1004.7,   63.3, -999.0
18-10-2023, 00:04:05,     53,    0.0,    9.0,   0.00,   0.00, 1004.7,   63.4, -999.0
18-10-2023, 00:04:15,     53,    0.0,    8.9,   0.00,   0.00, 1004.7,   63.4, -999.0
18-10-2023, 00:04:25,     53,    0.0,    9.0,   0.00,   0.00, 1004.7,   63.3, -999.0
18-10-2023, 00:04:35,     53,    0.0,    9.0,   0.00,   0.00, 1004.7,   63.6, -999.0
18-10-2023, 00:04:45,     53,    0.0,    9.0,   0.00,   0.00, 1004.7,   63.5, -999.0
18-10-2023, 00:04:55,     53,    0.0,    9.0,   0.00,   0.00, 1004.7,   63.3, -999.0
18-10-2023, 00:05:05,     53,    0.0,    9.0,   0.00,   0.00, 1004.7,   63.3, -999.0
18-10-2023, 00:05:15,     53,    0.0,    9.0,   0.00,   0.00, 1004.7,   63.3, -999.0
18-10-2023, 00:05:25,     53,    0.2,    9.0,   0.00,   0.00, 1004.8,   63.5, -999.0
18-10-2023, 00:05:35,     52,    0.0,    9.0,   0.00,   0.00, 1004.7,   63.3, -999.0
18-10-2023, 00:05:45,     53,    0.0,    8.9,   0.00,   0.00, 1004.6,   63.2, -999.0
18-10-2023, 00:05:55,     53,    0.0,    8.9,   0.00,   0.00, 1004.7,   63.1, -999.0
18-10-2023, 00:06:05,     53,    0.0,    9.0,   0.00,   0.00, 1004.6,   63.2, -999.0
18-10-2023, 00:06:15,     53,    0.0,    9.0,   0.00,   0.00, 1004.6,   63.2, -999.0
18-10-2023, 00:06:25,     53,    0.0,    9.0,   0.00,   0.00, 1004.6,   63.2, -999.0
18-10-2023, 00:06:35,     53,    0.0,    8.9,   0.00,   0.00, 1004.6,   63.1, -999.0
18-10-2023, 00:06:45,     53,    0.0,    9.0,   0.00,   0.00, 1004.6,   63.2, -999.0
18-10-2023, 00:06:55,     53,    0.0,    8.9,   0.00,   0.00, 1004.7,   63.3, -999.0
18-10-2023, 00:07:05,     53,    0.0,    9.0,   0.00,   0.00, 1004.6,   63.5, -999.0
18-10-2023, 00:07:15,     53,    0.2,    9.1,   0.00,   0.00, 1004.7,   63.6, -999.0
18-10-2023, 00:07:25,    121,    0.0,    9.0,   0.00,   0.00, 1004.6,   63.6, -999.0
18-10-2023, 00:07:35,    121,    0.3,    9.0,   0.00,   0.00, 1004.7,   63.5, -999.0
18-10-2023, 00:07:45,    121,    0.0,    9.1,   0.00,   0.00, 1004.6,   63.3, -999.0
18-10-2023, 00:07:55,    120,    0.0,    9.0,   0.00,   0.00, 1004.6,   63.1, -999.0
18-10-2023, 00:08:05,    121,    0.0,    9.0,   0.00,   0.00, 1004.6,   63.1, -999.0
18-10-2023, 00:08:14,    121,    0.0,    9.0,   0.00,   0.00, 1004.6,   63.0, -999.0
18-10-2023, 00:08:25,    121,    0.0,    9.0,   0.00,   0.00, 1004.6,   63.1, -999.0
18-10-2023, 00:08:35,     72,    0.0,    9.0,   0.00,   0.00, 1004.6,   63.1, -999.0
18-10-2023, 00:08:44,     68,    0.3,    9.0,   0.00,   0.00, 1004.6,   63.3, -999.0
18-10-2023, 00:08:54,     68,    0.0,    9.0,   0.00,   0.00, 1004.6,   63.3, -999.0
18-10-2023, 00:09:05,     68,    0.0,    8.9,   0.00,   0.00, 1004.6,   63.3, -999.0
18-10-2023, 00:09:14,     68,    0.0,    9.0,   0.00,   0.00, 1004.6,   63.3, -999.0
18-10-2023, 00:09:24,     68,    0.0,    9.0,   0.00,   0.00, 1004.5,   63.3, -999.0
18-10-2023, 00:09:34,     68,    0.0,    9.0,   0.00,   0.00, 1004.6,   63.3, -999.0
18-10-2023, 00:09:45,     68,    0.0,    9.0,   0.00,   0.00, 1004.5,   63.4, -999.0
18-10-2023, 00:09:54,     68,    0.0,    8.9,   0.00,   0.00, 1004.6,   63.3, -999.0
18-10-2023, 00:10:04,     66,    1.4,    9.0,   0.00,   0.00, 1004.7,   63.6, -999.0
18-10-2023, 00:10:15,     66,    0.0,    9.0,   0.00,   0.00, 1004.6,   63.3, -999.0
18-10-2023, 00:10:24,     66,    0.0,    9.0,   0.00,   0.00, 1004.6,   63.5, -999.0
18-10-2023, 00:10:34,     66,    0.1,    9.0,   0.00,   0.00, 1004.6,   63.5, -999.0
18-10-2023, 00:10:44,     66,    0.0,    9.0,   0.00,   0.00, 1004.6,   63.3, -999.0
18-10-2023, 00:10:54,     67,    0.0,    9.0,   0.00,   0.00, 1004.6,   63.4, -999.0
18-10-2023, 00:11:04,     66,    0.0,    9.0,   0.00,   0.00, 1004.6,   63.3, -999.0
18-10-2023, 00:11:14,     66,    0.1,    9.0,   0.00,   0.00, 1004.6,   63.4, -999.0
18-10-2023, 00:11:24,    133,    0.6,    9.0,   0.00,   0.00, 1004.7,   63.7, -999.0
18-10-2023, 00:11:34,    133,    0.0,    9.0,   0.00,   0.00, 1004.6,   63.4, -999.0
18-10-2023, 00:11:44,    133,    0.0,    9.0,   0.00,   0.00, 1004.5,   63.4, -999.0
18-10-2023, 00:11:54,     75,    0.4,    9.0,   0.00,   0.00, 1004.6,   63.6, -999.0
18-10-2023, 00:12:04,     75,    0.2,    9.0,   0.00,   0.00, 1004.6,   63.7, -999.0
18-10-2023, 00:12:14,     95,    0.5,    9.0,   0.00,   0.00, 1004.6,   63.9, -999.0
18-10-2023, 00:12:24,     95,    0.0,    9.1,   0.00,   0.00, 1004.6,   63.5, -999.0
18-10-2023, 00:12:34,     94,    0.2,    9.1,   0.00,   0.00, 1004.6,   63.6, -999.0
18-10-2023, 00:12:44,     94,    0.0,    9.0,   0.00,   0.00, 1004.5,   63.2, -999.0
18-10-2023, 00:12:54,     89,    0.5,    9.0,   0.00,   0.00, 1004.6,   63.6, -999.0
18-10-2023, 00:13:04,     89,    0.0,    9.1,   0.00,   0.00, 1004.6,   63.3, -999.0
18-10-2023, 00:13:14,     88,    0.0,    9.0,   0.00,   0.00, 1004.6,   63.5, -999.0
18-10-2023, 00:13:24,     89,    0.0,    9.1,   0.00,   0.00, 1004.5,   63.4, -999.0
18-10-2023, 00:13:34,     89,    0.0,    9.0,   0.00,   0.00, 1004.5,   63.3, -999.0
18-10-2023, 00:13:44,     87,    0.3,    9.1,   0.00,   0.00, 1004.6,   63.6, -999.0
18-10-2023, 00:13:54,     33,    1.3,    9.1,   0.00,   0.00, 1004.6,   63.7, -999.0
18-10-2023, 00:14:04,     97,    0.7,    9.2,   0.00,   0.00, 1004.6,   63.6, -999.0
18-10-2023, 00:14:14,     98,    0.0,    9.1,   0.00,   0.00, 1004.5,   63.3, -999.0
18-10-2023, 00:14:24,     97,    0.4,    9.2,   0.00,   0.00, 1004.6,   63.4, -999.0
18-10-2023, 00:14:34,     97,    0.0,    9.0,   0.00,   0.00, 1004.5,   63.1, -999.0
18-10-2023, 00:14:43,     97,    0.0,    9.1,   0.00,   0.00, 1004.5,   63.1, -999.0
18-10-2023, 00:14:54,    151,    0.1,    9.1,   0.00,   0.00, 1004.6,   63.2, -999.0
18-10-2023, 00:15:04,    151,    0.0,    9.1,   0.00,   0.00, 1004.5,   63.0, -999.0
18-10-2023, 00:15:13,    150,    0.0,    9.0,   0.00,   0.00, 1004.5,   63.0, -999.0
18-10-2023, 00:15:24,    149,    0.0,    9.0,   0.00,   0.00, 1004.5,   63.1, -999.0
18-10-2023, 00:15:34,    150,    0.0,    9.1,   0.00,   0.00, 1004.5,   63.1, -999.0
18-10-2023, 00:15:43,    150,    0.0,    9.0,   0.00,   0.00, 1004.5,   63.2, -999.0
18-10-2023, 00:15:53,    149,    0.0,    9.0,   0.00,   0.00, 1004.5,   63.2, -999.0
18-10-2023, 00:16:04,    150,    0.0,    9.0,   0.00,   0.00, 1004.5,   63.2, -999.0
18-10-2023, 00:16:14,    149,    0.0,    9.0,   0.00,   0.00, 1004.5,   63.3, -999.0
18-10-2023, 00:16:23,    149,    0.0,    9.1,   0.00,   0.00, 1004.5,   63.2, -999.0
18-10-2023, 00:16:33,    150,    0.0,    9.0,   0.00,   0.00, 1004.5,   63.3, -999.0
18-10-2023, 00:16:44,    150,    0.0,    9.0,   0.00,   0.00, 1004.5,   63.3, -999.0
18-10-2023, 00:16:53,    149,    0.0,    8.9,   0.00,   0.00, 1004.5,   63.3, -999.0
18-10-2023, 00:17:03,    149,    0.0,    9.0,   0.00,   0.00, 1004.5,   63.5, -999.0
18-10-2023, 00:17:13,    149,    0.0,    9.0,   0.00,   0.00, 1004.5,   63.5, -999.0
18-10-2023, 00:17:23,    150,    0.0,    8.9,   0.00,   0.00, 1004.5,   63.4, -999.0
18-10-2023, 00:17:33,    149,    0.0,    9.0,   0.00,   0.00, 1004.5,   63.3, -999.0
18-10-2023, 00:17:43,    149,    0.0,    9.0,   0.00,   0.00, 1004.5,   63.4, -999.0
18-10-2023, 00:17:53,    149,    0.0,    9.0,   0.00,   0.00, 1004.6,   63.6, -999.0
18-10-2023, 00:18:03,    149,    0.0,    9.0,   0.00,   0.00, 1004.5,   63.7, -999.0
18-10-2023, 00:18:13,    149,    0.0,    9.1,   0.00,   0.00, 1004.5,   63.7, -999.0
18-10-2023, 00:18:23,    150,    0.0,    9.1,   0.00,   0.00, 1004.5,   63.6, -999.0
18-10-2023, 00:18:33,    149,    0.0,    9.1,   0.00,   0.00, 1004.5,   63.5, -999.0
18-10-2023, 00:18:43,    150,    0.0,    9.0,   0.00,   0.00, 1004.5,   63.3, -999.0
18-10-2023, 00:18:53,    149,    0.0,    9.0,   0.00,   0.00, 1004.5,   63.3, -999.0
18-10-2023, 00:19:03,    149,    0.0,    9.0,   0.00,   0.00, 1004.5,   63.4, -999.0
18-10-2023, 00:19:13,    149,    0.0,    9.1,   0.00,   0.00, 1004.5,   63.3, -999.0
18-10-2023, 00:19:23,    149,    0.0,    9.1,   0.00,   0.00, 1004.5,   63.4, -999.0
18-10-2023, 00:19:33,    149,    0.0,    9.0,   0.00,   0.00, 1004.5,   63.5, -999.0
18-10-2023, 00:19:43,    149,    0.0,    9.0,   0.00,   0.00, 1004.5,   63.4, -999.0
18-10-2023, 00:19:53,    150,    0.0,    9.0,   0.00,   0.00, 1004.5,   63.4, -999.0
18-10-2023, 00:20:03,    149,    0.0,    8.9,   0.00,   0.00, 1004.5,   63.3, -999.0
18-10-2023, 00:20:13,    149,    0.0,    8.9,   0.00,   0.00, 1004.5,   63.4, -999.0
18-10-2023, 00:20:23,    137,    0.0,    9.0,   0.00,   0.00, 1004.5,   63.4, -999.0
18-10-2023, 00:20:33,    136,    0.0,    9.0,   0.00,   0.00, 1004.5,   63.5, -999.0
18-10-2023, 00:20:43,    136,    0.0,    9.0,   0.00,   0.00, 1004.5,   63.6, -999.0
18-10-2023, 00:20:53,    136,    0.0,    8.9,   0.00,   0.00, 1004.5,   63.6, -999.0
18-10-2023, 00:21:03,    136,    0.1,    9.0,   0.00,   0.00, 1004.5,   63.8, -999.0
18-10-2023, 00:21:13,    136,    0.0,    9.0,   0.00,   0.00, 1004.6,   63.7, -999.0
18-10-2023, 00:21:23,    136,    0.0,    8.9,   0.00,   0.00, 1004.5,   63.7, -999.0
18-10-2023, 00:21:33,    136,    0.1,    9.0,   0.00,   0.00, 1004.6,   63.9, -999.0
18-10-2023, 00:21:42,    136,    0.0,    9.1,   0.00,   0.00, 1004.5,   63.7, -999.0
18-10-2023, 00:21:53,    136,    0.0,    9.1,   0.00,   0.00, 1004.5,   63.7, -999.0
18-10-2023, 00:22:03,    136,    0.0,    9.1,   0.00,   0.00, 1004.5,   63.6, -999.0
18-10-2023, 00:22:14,    136,    0.0,    9.1,   0.00,   0.00, 1004.5,   63.5, -999.0
18-10-2023, 00:22:22,    136,    0.0,    9.0,   0.00,   0.00, 1004.5,   63.5, -999.0
18-10-2023, 00:22:33,    137,    0.0,    9.0,   0.00,   0.00, 1004.5,   63.4, -999.0
18-10-2023, 00:22:43,    136,    0.0,    9.0,   0.00,   0.00, 1004.5,   63.4, -999.0
18-10-2023, 00:22:52,    136,    0.2,    9.0,   0.00,   0.00, 1004.6,   63.5, -999.0
18-10-2023, 00:23:02,    110,    1.4,    9.1,   0.00,   0.00, 1004.7,   63.8, -999.0
18-10-2023, 00:23:13,    115,    0.7,    9.1,   0.00,   0.00, 1004.6,   63.8, -999.0
18-10-2023, 00:23:22,    115,    0.0,    9.0,   0.00,   0.00, 1004.5,   63.7, -999.0
18-10-2023, 00:23:32,    114,    0.0,    9.0,   0.00,   0.00, 1004.5,   63.7, -999.0
18-10-2023, 00:23:42,    115,    0.0,    9.0,   0.00,   0.00, 1004.5,   63.6, -999.0
18-10-2023, 00:23:53,    115,    0.0,    9.0,   0.00,   0.00, 1004.5,   63.6, -999.0
18-10-2023, 00:24:02,    114,    0.0,    9.0,   0.00,   0.00, 1004.5,   63.5, -999.0
18-10-2023, 00:24:12,     58,    0.4,    9.0,   0.00,   0.00, 1004.6,   63.7, -999.0
18-10-2023, 00:24:22,     59,    0.0,    9.0,   0.00,   0.00, 1004.5,   63.6, -999.0
18-10-2023, 00:24:32,     59,    0.0,    8.9,   0.00,   0.00, 1004.5,   63.6, -999.0
18-10-2023, 00:24:42,     60,    0.0,    9.0,   0.00,   0.00, 1004.5,   63.8, -999.0
18-10-2023, 00:24:52,    110,    0.3,    9.0,   0.00,   0.00, 1004.6,   64.0, -999.0
18-10-2023, 00:25:02,    110,    0.0,    9.0,   0.00,   0.00, 1004.5,   63.8, -999.0
18-10-2023, 00:25:12,    110,    0.0,    9.1,   0.00,   0.00, 1004.5,   63.9, -999.0
18-10-2023, 00:25:22,    110,    0.0,    9.0,   0.00,   0.00, 1004.5,   63.8, -999.0
18-10-2023, 00:25:32,    111,    0.0,    9.0,   0.00,   0.00, 1004.5,   63.7, -999.0
18-10-2023, 00:25:42,    110,    0.0,    9.0,   0.00,   0.00, 1004.5,   63.7, -999.0
18-10-2023, 00:25:52,    110,    0.0,    9.0,   0.00,   0.00, 1004.5,   63.7, -999.0
18-10-2023, 00:26:02,    110,    0.0,    9.0,   0.00,   0.00, 1004.5,   63.9, -999.0
18-10-2023, 00:26:12,    112,    0.0,    9.0,   0.00,   0.00, 1004.5,   63.8, -999.0
18-10-2023, 00:26:22,    112,    0.0,    9.0,   0.00,   0.00, 1004.5,   63.7, -999.0
18-10-2023, 00:26:32,    112,    0.0,    9.0,   0.00,   0.00, 1004.5,   63.7, -999.0
18-10-2023, 00:26:42,    112,    0.0,    9.1,   0.00,   0.00, 1004.5,   63.9, -999.0
18-10-2023, 00:26:52,    112,    0.0,    9.0,   0.00,   0.00, 1004.5,   63.9, -999.0
18-10-2023, 00:27:02,    112,    0.0,    9.0,   0.00,   0.00, 1004.5,   63.7, -999.0
18-10-2023, 00:27:12,    112,    0.0,    9.0,   0.00,   0.00, 1004.5,   63.6, -999.0
18-10-2023, 00:27:22,    112,    0.0,    9.0,   0.00,   0.00, 1004.5,   63.7, -999.0
18-10-2023, 00:27:32,    112,    0.0,    9.0,   0.00,   0.00, 1004.5,   63.6, -999.0
18-10-2023, 00:27:42,    112,    0.0,    9.0,   0.00,   0.00, 1004.5,   63.5, -999.0
18-10-2023, 00:27:52,    112,    0.0,    8.9,   0.00,   0.00, 1004.5,   63.6, -999.0
18-10-2023, 00:28:02,    112,    0.0,    9.0,   0.00,   0.00, 1004.5,   63.7, -999.0
18-10-2023, 00:28:12,    112,    0.0,    9.0,   0.00,   0.00, 1004.5,   63.7, -999.0
18-10-2023, 00:28:22,    112,    0.0,    9.0,   0.00,   0.00, 1004.5,   63.7, -999.0
18-10-2023, 00:28:32,    112,    0.0,    8.9,   0.00,   0.00, 1004.5,   63.9, -999.0
18-10-2023, 00:28:42,    112,    0.0,    9.0,   0.00,   0.00, 1004.5,   63.8, -999.0
18-10-2023, 00:28:51,    111,    0.0,    9.0,   0.00,   0.00, 1004.5,   63.9, -999.0
18-10-2023, 00:29:02,    112,    0.0,    9.0,   0.00,   0.00, 1004.5,   64.0, -999.0
18-10-2023, 00:29:12,    112,    0.0,    9.0,   0.00,   0.00, 1004.5,   64.0, -999.0
18-10-2023, 00:29:21,    112,    0.0,    9.0,   0.00,   0.00, 1004.5,   64.1, -999.0
18-10-2023, 00:29:31,    112,    0.0,    9.0,   0.00,   0.00, 1004.5,   64.2, -999.0
18-10-2023, 00:29:42,    112,    0.3,    8.9,   0.00,   0.00, 1004.5,   64.3, -999.0
18-10-2023, 00:29:52,    107,    0.9,    9.1,   0.00,   0.00, 1004.6,   64.4, -999.0
18-10-2023, 00:30:01,    107,    0.2,    9.1,   0.00,   0.00, 1004.5,   64.0, -999.0
18-10-2023, 00:30:11,    107,    0.0,    9.1,   0.00,   0.00, 1004.5,   63.9, -999.0
18-10-2023, 00:30:22,    106,    0.0,    9.0,   0.00,   0.00, 1004.5,   63.8, -999.0
18-10-2023, 00:30:31,    107,    0.0,    9.0,   0.00,   0.00, 1004.5,   63.7, -999.0
18-10-2023, 00:30:41,    105,    0.0,    9.0,   0.00,   0.00, 1004.4,   63.8, -999.0
18-10-2023, 00:30:52,    107,    0.0,    9.0,   0.00,   0.00, 1004.5,   63.8, -999.0
18-10-2023, 00:31:01,    107,    0.3,    9.0,   0.00,   0.00, 1004.6,   64.1, -999.0
18-10-2023, 00:31:11,    106,    0.1,    9.1,   0.00,   0.00, 1004.5,   64.1, -999.0
18-10-2023, 00:31:21,    106,    0.0,    9.0,   0.00,   0.00, 1004.4,   64.0, -999.0
18-10-2023, 00:31:32,     60,    0.0,    9.1,   0.00,   0.00, 1004.5,   64.1, -999.0
18-10-2023, 00:31:41,     78,    1.5,    9.1,   0.00,   0.00, 1004.6,   64.4, -999.0
18-10-2023, 00:31:51,     70,    1.3,    9.1,   0.00,   0.00, 1004.6,   64.4, -999.0
18-10-2023, 00:32:01,     70,    0.1,    9.1,   0.00,   0.00, 1004.5,   64.2, -999.0
18-10-2023, 00:32:11,     70,    0.1,    9.0,   0.00,   0.00, 1004.5,   64.1, -999.0
18-10-2023, 00:32:21,     70,    0.0,    9.0,   0.00,   0.00, 1004.4,   64.0, -999.0
18-10-2023, 00:32:31,     70,    0.0,    9.0,   0.00,   0.00, 1004.5,   64.0, -999.0
18-10-2023, 00:32:41,     70,    0.0,    8.9,   0.00,   0.00, 1004.4,   63.9, -999.0
18-10-2023, 00:32:51,     70,    0.0,    9.0,   0.00,   0.00, 1004.4,   63.9, -999.0
18-10-2023, 00:33:01,     70,    0.0,    9.0,   0.00,   0.00, 1004.4,   63.9, -999.0
18-10-2023, 00:33:11,     70,    0.0,    9.0,   0.00,   0.00, 1004.4,   64.2, -999.0
18-10-2023, 00:33:21,     70,    0.0,    9.1,   0.00,   0.00, 1004.4,   64.2, -999.0
18-10-2023, 00:33:31,     70,    0.0,    9.1,   0.00,   0.00, 1004.4,   64.1, -999.0
18-10-2023, 00:33:41,     70,    0.0,    9.0,   0.00,   0.00, 1004.5,   64.0, -999.0
18-10-2023, 00:33:51,     70,    0.0,    9.1,   0.00,   0.00, 1004.5,   64.0, -999.0
18-10-2023, 00:34:01,     70,    0.0,    9.0,   0.00,   0.00, 1004.5,   64.1, -999.0
18-10-2023, 00:34:11,     70,    0.0,    9.1,   0.00,   0.00, 1004.5,   64.0, -999.0
18-10-2023, 00:34:21,     70,    0.0,    9.0,   0.00,   0.00, 1004.4,   64.1, -999.0
18-10-2023, 00:34:31,     70,    0.0,    9.0,   0.00,   0.00, 1004.5,   64.1, -999.0
18-10-2023, 00:34:41,     70,    0.0,    9.0,   0.00,   0.00, 1004.5,   64.1, -999.0
18-10-2023, 00:34:51,     70,    0.0,    9.0,   0.00,   0.00, 1004.4,   64.2, -999.0
18-10-2023, 00:35:01,     70,    0.0,    9.0,   0.00,   0.00, 1004.5,   64.2, -999.0
18-10-2023, 00:35:11,     70,    0.0,    9.0,   0.00,   0.00, 1004.4,   64.2, -999.0
18-10-2023, 00:35:21,     70,    0.0,    9.0,   0.00,   0.00, 1004.5,   64.3, -999.0
18-10-2023, 00:35:31,    124,    0.0,    9.0,   0.00,   0.00, 1004.5,   64.2, -999.0
18-10-2023, 00:35:41,    124,    0.6,    9.1,   0.00,   0.00, 1004.6,   64.5, -999.0
18-10-2023, 00:35:50,    123,    0.0,    9.1,   0.00,   0.00, 1004.5,   64.4, -999.0
18-10-2023, 00:36:01,    124,    0.0,    9.0,   0.00,   0.00, 1004.5,   64.2, -999.0
18-10-2023, 00:36:11,    123,    0.0,    9.0,   0.00,   0.00, 1004.5,   64.2, -999.0
18-10-2023, 00:36:21,    123,    0.1,    9.0,   0.00,   0.00, 1004.6,   64.4, -999.0
18-10-2023, 00:36:30,    123,    0.4,    9.1,   0.00,   0.00, 1004.6,   64.6, -999.0
18-10-2023, 00:36:41,    124,    0.0,    9.0,   0.00,   0.00, 1004.5,   64.4, -999.0
18-10-2023, 00:36:51,    124,    0.1,    9.0,   0.00,   0.00, 1004.5,   64.6, -999.0
18-10-2023, 00:37:00,    122,    0.3,    9.1,   0.00,   0.00, 1004.6,   64.5, -999.0
18-10-2023, 00:37:10,    122,    0.0,    9.0,   0.00,   0.00, 1004.5,   64.3, -999.0
18-10-2023, 00:37:21,    121,    0.0,    8.9,   0.00,   0.00, 1004.5,   64.3, -999.0
18-10-2023, 00:37:30,    117,    0.0,    9.0,   0.00,   0.00, 1004.5,   64.4, -999.0
18-10-2023, 00:37:40,    117,    0.0,    9.0,   0.00,   0.00, 1004.5,   64.3, -999.0
18-10-2023, 00:37:50,    118,    0.0,    9.0,   0.00,   0.00, 1004.5,   64.4, -999.0
18-10-2023, 00:38:01,    117,    0.0,    9.0,   0.00,   0.00, 1004.5,   64.3, -999.0
18-10-2023, 00:38:10,     48,    0.6,    9.0,   0.00,   0.00, 1004.6,   64.6, -999.0
18-10-2023, 00:38:20,     47,    0.0,    9.0,   0.00,   0.00, 1004.5,   64.5, -999.0
18-10-2023, 00:38:30,     70,    0.0,    9.0,   0.00,   0.00, 1004.5,   64.6, -999.0
18-10-2023, 00:38:40,     90,    0.0,    9.1,   0.00,   0.00, 1004.5,   64.6, -999.0
18-10-2023, 00:38:50,    105,    0.0,    9.1,   0.00,   0.00, 1004.5,   64.4, -999.0
18-10-2023, 00:39:00,    112,    0.0,    9.1,   0.00,   0.00, 1004.5,   64.1, -999.0
18-10-2023, 00:39:10,    114,    0.0,    9.1,   0.00,   0.00, 1004.4,   64.2, -999.0
18-10-2023, 00:39:20,    114,    0.0,    9.1,   0.00,   0.00, 1004.4,   64.1, -999.0
18-10-2023, 00:39:30,    113,    0.0,    9.1,   0.00,   0.00, 1004.4,   64.2, -999.0
18-10-2023, 00:39:40,    114,    0.0,    9.1,   0.00,   0.00, 1004.4,   64.2, -999.0
18-10-2023, 00:39:50,    114,    0.0,    9.0,   0.00,   0.00, 1004.4,   64.2, -999.0
18-10-2023, 00:40:00,    114,    0.0,    9.1,   0.00,   0.00, 1004.4,   64.2, -999.0
18-10-2023, 00:40:10,    114,    0.0,    9.0,   0.00,   0.00, 1004.4,   64.2, -999.0
18-10-2023, 00:40:20,    114,    0.0,    9.1,   0.00,   0.00, 1004.4,   64.1, -999.0
18-10-2023, 00:40:30,    114,    0.0,    9.1,   0.00,   0.00, 1004.4,   64.1, -999.0
18-10-2023, 00:40:40,    114,    0.0,    9.0,   0.00,   0.00, 1004.4,   64.2, -999.0
18-10-2023, 00:40:50,    114,    0.0,    9.1,   0.00,   0.00, 1004.4,   64.1, -999.0
18-10-2023, 00:41:00,    114,    0.0,    9.0,   0.00,   0.00, 1004.4,   64.1, -999.0
18-10-2023, 00:41:10,    114,    0.0,    9.1,   0.00,   0.00, 1004.4,   64.1, -999.0
18-10-2023, 00:41:20,    114,    0.0,    9.1,   0.00,   0.00, 1004.4,   64.1, -999.0
18-10-2023, 00:41:30,    114,    0.0,    9.0,   0.00,   0.00, 1004.4,   64.2, -999.0
18-10-2023, 00:41:40,     71,    0.9,    9.0,   0.00,   0.00, 1004.5,   64.6, -999.0
18-10-2023, 00:41:50,     70,    0.1,    9.1,   0.00,   0.00, 1004.4,   64.6, -999.0
18-10-2023, 00:42:00,     71,    0.0,    9.1,   0.00,   0.00, 1004.4,   64.5, -999.0
18-10-2023, 00:42:10,     70,    0.0,    9.0,   0.00,   0.00, 1004.4,   64.4, -999.0
18-10-2023, 00:42:20,     71,    0.0,    9.0,   0.00,   0.00, 1004.4,   64.4, -999.0
18-10-2023, 00:42:30,     71,    0.0,    9.0,   0.00,   0.00, 1004.4,   64.3, -999.0
18-10-2023, 00:42:40,     71,    0.0,    9.0,   0.00,   0.00, 1004.4,   64.3, -999.0
18-10-2023, 00:42:50,     71,    0.0,    9.0,   0.00,   0.00, 1004.4,   64.3, -999.0
18-10-2023, 00:42:59,     71,    0.0,    9.0,   0.00,   0.00, 1004.4,   64.3, -999.0
18-10-2023, 00:43:10,     70,    0.0,    9.0,   0.00,   0.00, 1004.4,   64.3, -999.0
18-10-2023, 00:43:20,     70,    0.0,    9.0,   0.00,   0.00, 1004.4,   64.2, -999.0
18-10-2023, 00:43:29,     71,    0.0,    9.0,   0.00,   0.00, 1004.4,   64.3, -999.0
18-10-2023, 00:43:39,     71,    0.0,    9.0,   0.00,   0.00, 1004.3,   64.2, -999.0
18-10-2023, 00:43:50,     71,    0.0,    9.0,   0.00,   0.00, 1004.4,   64.3, -999.0
18-10-2023, 00:44:00,     70,    0.0,    9.0,   0.00,   0.00, 1004.4,   64.3, -999.0
18-10-2023, 00:44:09,     71,    0.0,    9.0,   0.00,   0.00, 1004.3,   64.3, -999.0
18-10-2023, 00:44:19,     70,    0.0,    9.0,   0.00,   0.00, 1004.4,   64.4, -999.0
18-10-2023, 00:44:30,     71,    0.0,    9.0,   0.00,   0.00, 1004.4,   64.6, -999.0
18-10-2023, 00:44:39,     71,    0.0,    9.0,   0.00,   0.00, 1004.3,   64.7, -999.0
18-10-2023, 00:44:49,     70,    0.0,    9.0,   0.00,   0.00, 1004.4,   64.8, -999.0
18-10-2023, 00:44:59,     70,    0.0,    9.0,   0.00,   0.00, 1004.3,   64.8, -999.0
18-10-2023, 00:45:09,     70,    0.0,    9.0,   0.00,   0.00, 1004.4,   64.6, -999.0
18-10-2023, 00:45:19,     70,    0.0,    9.0,   0.00,   0.00, 1004.3,   64.6, -999.0
18-10-2023, 00:45:29,     71,    0.0,    9.0,   0.00,   0.00, 1004.4,   64.6, -999.0
18-10-2023, 00:45:39,     71,    0.0,    9.0,   0.00,   0.00, 1004.3,   64.5, -999.0
18-10-2023, 00:45:49,     71,    0.0,    9.0,   0.00,   0.00, 1004.4,   64.6, -999.0
18-10-2023, 00:45:59,     71,    0.0,    9.0,   0.00,   0.00, 1004.4,   64.8, -999.0
18-10-2023, 00:46:09,     70,    0.2,    9.0,   0.00,   0.00, 1004.4,   64.9, -999.0
18-10-2023, 00:46:19,     71,    0.0,    8.9,   0.00,   0.00, 1004.4,   64.8, -999.0
18-10-2023, 00:46:29,     70,    0.0,    8.9,   0.00,   0.00, 1004.4,   64.8, -999.0
18-10-2023, 00:46:39,     70,    0.0,    9.0,   0.00,   0.00, 1004.4,   64.9, -999.0
18-10-2023, 00:46:49,     71,    0.0,    8.9,   0.00,   0.00, 1004.4,   65.0, -999.0